"Pseudo-MPEC" for P21lbah

Created 2021 Sep 22 16:07:15 UT using Find_Orb

Click here for an explanation of pseudo-MPECs

 
 Astrometry: 
     P21lbah  C2021 09 15a0h1ZrpeyqvE7ix]1ZoAstrometrymptmubrVEh)`xKKXCBCvmsAF52
     P21lbah  C2021 09 15+b?h*4xr.kHJ=$I+a/]2[;0W8,J1N/NGQlRSZredacted;PBuNllF52
     P21lbah  C2021 09 15,;wn%4Z`)DqAQu,Y+4\[2j;p^7x*)*FZRKn3eQW\LbWYuGVS(hCxF52
     P21lbah  C2021 09 15+m6vk@Of:(k/o0:lgi$tGtM*cJ(HqD^Jl%?tJ(C[BI'/l_/14W+aF52
     P21lbah  C2021 09 15aHfCp7a;Ty?FX^t]f=/@y3_(DM_)hRTCHl^=7]FputSb7KKW$CD=F52
     P21lbah  C2021 09 15Khj0LYd$g-3Exclick3]5Y-here0-`LDewVCAaFCQ1oduMR]-e(+F52
     P21lbah  C2021 09 15ye@2r+@2WQ/tuPO6vrAaA,]H^@U#HaVh[C`f=MD[$S0S]_i311u,F52
     P21lbah  C2021 09 15=2TURc2TJiB`2]LO0JdhWtBn31\xvW^9i8Hu[O$L@j/G?sq]a)2]F52
     P21lbah KC2021 09 17wyIYxEj\93Oa.+v8ed,jMSc$Ga-3y_2Hrdmc!`P*H_5xQy;`CB9-H21
     P21lbah KC2021 09 17Br.]YA\-^kL,TMl^1nCFmtFi;ie.P-8k`3'XAfImLWt+39+Zh_1IH21
     P21lbah KC2021 09 17w/*ilOO1bGQ1n#iBA_'.x2hfKHxLLO5forY$rc.xtpEK'm(J5IcpH21
     P21lbah  C2021 09 222b((T#ZZO/o/Cs',[ZQ%_3Mg]j!3c;WEI4Z]=iRL2Sra3,9mE@f=F51
     P21lbah  C2021 09 22\1o3[eD'h2aLO*XUq^cCv*mCOscp6'UexplanationInj4mKW%f)F51
     P21lbah  C2021 09 22/qadBMeTJoGmyt1o01P?ZxdIk5qcs$DoXrZ2v*YC)STR?\7TZ!#7F51

Station data:
(F51) Pan-STARRS 1, Haleakala  (N20.707235 W156.255910)  US/Hawaii.
   Observers N. Primak, A. Schultz, S. Watters, J. Thiel, T. Goggia. Measurer
   PS1 Science Consortium. 1.8-m Ritchey-Chrétien + CCD.
(F52) Pan-STARRS 2, Haleakala  (N20.707384 W156.255910)  US/Hawaii. 1.8-m
   Ritchey-Chrétien + CCD.
(H21) Astronomical Research Observatory, Westfield  (N39.483057 W87.968270)
   US/Illinois. 0.76-m f/3.0 astrograph + CCD.

Orbital elements:  P21lbah
   Perihelion 2021 Aug 25.158928 +/- 0.118876 TT =  3:48:51 (JD 2459451.658928)
Epoch 2021 Sep 22.0 TT = JDT 2459479.5   Earth MOID: 0.3214   Ma: 0.0200
M   8.72028846 +/- 0.4722516        (J2000 ecliptic)          AutoNEOCP
n   0.31321668 +/- 0.0162791        Peri.  222.25922 +/- 0.1679667
a   2.14736623 +/- 0.0743892        Node   137.72037 +/- 0.5962378
e   0.3863871 +/- 0.0181806         Incl.    5.63334 +/- 0.0881576
P   3.15                   H 21.0   G  0.15   U 10.0  
q 1.31765143 +/- 0.00735593    Q 2.97708103 +/- 0.15773
From 14 observations 2021 Sept. 15-22; mean residual 0".11
Residuals in arcseconds: 
210915 F52  .08-  .01+    210915 F52  .07-  .07+    210917 H21  .13-  .02-    
210915 F52  .30-  .00     210915 F52  .27+  .16+    210922 F51  .00   .07+    
210915 F52  .03-  .04+    210915 F52  .02+  .21-    210922 F51  .05-  .08+    
210915 F52  .13+  .07-    210917 H21  .15+  .01+    210922 F51  .05+  .16-    
210915 F52  .07+  .04-    210917 H21  .02-  .04+    

Ephemerides (geocentric):
Date (UTC) HH   RA              Dec         delta   r     elong  mag " sig PA
---- -- -- --  -------------   -----------  ------ ------ -----  --- ---- ---
2021 09 22 16  04 17 07.705   +09 03 53.57  .56562 1.3439 115.0 22.1 .585  84
2021 09 22 17  04 17 11.907   +09 03 43.40  .56553 1.3440 115.0 22.1 .588  85
2021 09 22 18  04 17 16.104   +09 03 33.21  .56544 1.3441 115.0 22.1 .591  86
2021 09 22 19  04 17 20.295   +09 03 23.01  .56535 1.3441 115.0 22.1 .594  87
2021 09 22 20  04 17 24.480   +09 03 12.79  .56526 1.3442 115.0 22.1 .598  89
2021 09 22 21  04 17 28.661   +09 03 02.56  .56517 1.3443 115.1 22.1 .602  90
2021 09 22 22  04 17 32.836   +09 02 52.32  .56509 1.3444 115.1 22.1 .605  91
2021 09 22 23  04 17 37.006   +09 02 42.06  .56500 1.3444 115.1 22.1 .609  92
2021 09 23 00  04 17 41.170   +09 02 31.79  .56491 1.3445 115.1 22.1 .613  93
2021 09 23 01  04 17 45.329   +09 02 21.50  .56482 1.3446 115.2 22.1 .618  94
2021 09 23 02  04 17 49.483   +09 02 11.21  .56473 1.3447 115.2 22.1 .622  95
2021 09 23 03  04 17 53.631   +09 02 00.89  .56465 1.3447 115.2 22.1 .627  96
2021 09 23 04  04 17 57.774   +09 01 50.57  .56456 1.3448 115.2 22.1 .632  97
2021 09 23 05  04 18 01.911   +09 01 40.23  .56447 1.3449 115.3 22.1 .637  99
2021 09 23 06  04 18 06.043   +09 01 29.88  .56438 1.3450 115.3 22.1 .642 100
2021 09 23 07  04 18 10.170   +09 01 19.51  .56429 1.3451 115.3 22.0 .648 101
2021 09 23 08  04 18 14.292   +09 01 09.14  .56421 1.3451 115.3 22.0 .653 102
2021 09 23 09  04 18 18.408   +09 00 58.74  .56412 1.3452 115.3 22.0 .659 103
2021 09 23 10  04 18 22.518   +09 00 48.34  .56403 1.3453 115.4 22.0 .665 104
2021 09 23 11  04 18 26.623   +09 00 37.92  .56394 1.3454 115.4 22.0 .671 105
2021 09 23 12  04 18 30.723   +09 00 27.49  .56386 1.3454 115.4 22.0 .678 106
2021 09 23 13  04 18 34.818   +09 00 17.04  .56377 1.3455 115.4 22.0 .684 107
2021 09 23 14  04 18 38.907   +09 00 06.59  .56368 1.3456 115.5 22.0 .691 108
2021 09 23 15  04 18 42.990   +08 59 56.11  .56360 1.3457 115.5 22.0 .698 109
2021 09 23 16  04 18 47.069   +08 59 45.63  .56351 1.3458 115.5 22.0 .705 110
2021 09 23 17  04 18 51.141   +08 59 35.13  .56342 1.3458 115.5 22.0 .713 111
2021 09 23 18  04 18 55.209   +08 59 24.62  .56333 1.3459 115.6 22.0 .720 112
2021 09 23 19  04 18 59.271   +08 59 14.10  .56325 1.3460 115.6 22.0 .728 113
2021 09 23 20  04 19 03.327   +08 59 03.56  .56316 1.3461 115.6 22.0 .736 114
2021 09 23 21  04 19 07.378   +08 58 53.01  .56307 1.3461 115.6 22.0 .744 115
2021 09 23 22  04 19 11.424   +08 58 42.45  .56299 1.3462 115.6 22.0 .753 116
2021 09 23 23  04 19 15.464   +08 58 31.87  .56290 1.3463 115.7 22.0 .761 117
2021 09 24 00  04 19 19.499   +08 58 21.28  .56281 1.3464 115.7 22.0 .770 118
2021 09 24 01  04 19 23.528   +08 58 10.68  .56273 1.3465 115.7 22.0 .779 119
2021 09 24 02  04 19 27.552   +08 58 00.07  .56264 1.3465 115.7 22.0 .789 120
2021 09 24 03  04 19 31.571   +08 57 49.44  .56255 1.3466 115.8 22.0 .798 121
2021 09 24 04  04 19 35.584   +08 57 38.80  .56247 1.3467 115.8 22.0 .808 122
2021 09 24 05  04 19 39.591   +08 57 28.15  .56238 1.3468 115.8 22.0 .818 123
2021 09 24 06  04 19 43.593   +08 57 17.48  .56229 1.3469 115.8 22.0 .828 124
2021 09 24 07  04 19 47.590   +08 57 06.81  .56221 1.3469 115.9 22.0 .838 125
2021 09 24 08  04 19 51.581   +08 56 56.11  .56212 1.3470 115.9 22.0 .849 126
2021 09 24 09  04 19 55.566   +08 56 45.41  .56203 1.3471 115.9 22.0 .859 126
2021 09 24 10  04 19 59.547   +08 56 34.70  .56195 1.3472 115.9 22.0 .870 127
2021 09 24 11  04 20 03.521   +08 56 23.97  .56186 1.3472 115.9 22.0 .881 128
2021 09 24 12  04 20 07.490   +08 56 13.23  .56178 1.3473 116.0 22.0 .893 129
2021 09 24 13  04 20 11.454   +08 56 02.47  .56169 1.3474 116.0 22.0 .904 130
2021 09 24 14  04 20 15.412   +08 55 51.71  .56160 1.3475 116.0 22.0 .916 131
2021 09 24 15  04 20 19.365   +08 55 40.93  .56152 1.3476 116.0 22.0 .928 132